Regional Weather Roundup
Issued by NWS

Home | Current Version | Previous Version | Graphics & Text | Print | Product List | Glossary On
Versions: 1 2 3 4 5 6 7 8 9 10 11 12 13 14 15 16 17 18 19 20 21 22 23 24 25 26 27
000
ASUS45 KSLC 271310
RWRUT

UTAH REGIONAL WEATHER ROUNDUP
NATIONAL WEATHER SERVICE SALT LAKE CITY UT
700 AM MDT SAT MAY 27 2017

UTZ001>011-023>025-271400-

NORTHERN UTAH

CITY           SKY/WX    TMP DP  RH WIND       PRES   REMARKS
BRIGHAM CITY   CLEAR     43  37  78 CALM      30.18R
HILL AFB       CLEAR     43  35  73 E10       30.17R
LOGAN          CLEAR     43  37  79 S5        30.19R
OGDEN          CLEAR     45  36  70 S8        30.17R
SALT LAKE CITY PTCLDY    49  39  68 CALM      30.17R
TOOELE VALLEY  CLEAR     45  39  81 SW6       30.19R
WENDOVER       CLEAR     48  37  65 CALM      30.18R
HEBER CITY     CLEAR     39  30  70 SW5       30.17R
WEST JORDAN    CLEAR     46  43  89 W3        30.18R

$$

UTZ011>015-024>027-271400-

CENTRAL/NORTHEAST UTAH

CITY           SKY/WX    TMP DP  RH WIND       PRES   REMARKS
PROVO AIRPORT  MOCLDY    49  39  68 NE3       30.17R
MOAB/CANYONLAN CLOUDY    60  26  27 VRB5      30.04R
DELTA          CLEAR     45  34  65 NW7       30.16R
PRICE          CLEAR     49  32  52 N7        30.11R
ROOSEVELT      CLOUDY    45  36  70 CALM      30.12R
VERNAL         MOSUNNY   51  32  48 N5        30.10R

$$

UTZ013>016-019>022-027-271400-

SOUTHERN UTAH

CITY           SKY/WX    TMP DP  RH WIND       PRES   REMARKS
BRYCE CANYON   CLEAR     39  30  70 NW10      30.20R WCI  32
CEDAR CITY     CLEAR     43  31  62 CALM      30.13R
MILFORD        CLEAR     49  35  58 N7        30.14R
ST GEORGE      SUNNY     65  35  33 N6        30.00R
HANKSVILLE     PTCLDY    55  30  38 CALM      30.09R
BLANDING       SUNNY     50  29  44 NW7       30.15R

$$

REGIONAL REPORTS     COLORADO/ARIZONA

CITY           SKY/WX    TMP DP  RH WIND       PRES   REMARKS
CRAIG, CO      CLOUDY    43  39  86 E8        30.13R
GRAND JUNCTION PTSUNNY   56  35  45 E5        30.05R
RIFLE, CO      MOSUNNY   50  39  66 CALM      30.09S
MONTROSE, CO   PTSUNNY   49  33  54 S9        30.10S
CORTEZ, CO     SUNNY     48  31  51 NE5       30.09R
COLORADO CITY    N/A     45  30  57 SE6       30.11R
PAGE, AZ       CLEAR     62  34  35 W6        30.03R
GRAND CANYON   CLEAR     35  25  66 E5        30.16R WCI  31
KINGMAN, AZ    CLEAR     58  28  32 S10       29.99R
FLAGSTAFF, AZ  CLEAR     36  24  62 CALM      30.18R

$$

REGIONAL REPORTS    NEVADA/IDAHO/WYOMING

CITY           SKY/WX    TMP DP  RH WIND       PRES   REMARKS
LAS VEGAS, NV  CLEAR     71  28  20 CALM      29.92R
ELY, NY        CLEAR     29  22  75 S9        30.20R WCI  20
ELKO, NV       CLEAR     38  33  82 CALM      30.19R
POCATELLO, ID  PTCLDY    37  37 100 CALM      30.20R
BURLEY, ID     CLEAR     41  38  89 S3        30.17R
FORT BRIDGER,    N/A     37  34  89 W10       30.22R WCI  30
EVANSTON, WY   MOSUNNY   35  34  96 N6        30.20R WCI  30
ROCK SPRINGS,  CLOUDY    38  36  92 SW3       30.16R
KEMMERER, WY     N/A     34  32  93 NW3       30.20R

$$




USA.gov is the U.S. government's official web portal to all federal, state and local government web resources and services.